Location: Del Amo
(33.8464°N, 118.2104°W)
Time: 19:28:09
(UTC+00:00)

S-56A Canister/Altair - Pass Details

Date: 20 September 2024
Orbit: 636 x 2487 km, 38.9° (Epoch: 14 October)

Event Time Altitude Azimuth Distance (km) Brightness Sun altitude
Rises 01:01:48 0° 253° (WSW) 2,931 12.5 9.8°
Reaches altitude 10° 01:03:56 10° 255° (WSW) 2,070 12.2 9.3°
Maximum altitude 01:08:33 78° 342° (NNW) 774 7.8 8.4°
Drops below altitude 10° 01:14:39 10° 69° (ENE) 2,706 9.8 7.1°
Sets 01:17:48 0° 70° (ENE) 3,922 10.5 6.4°
